Current weather by "City, St" or "zip code"  
 

Current Conditions: Midland, Midland International Airport, TX

Fair


95.0 F

Last Updated on Jul 3 2022, 3:53 pm CDT
Humidity: 25%
Wind Speed: S 15.0 G 21.9 mph
Barometer 29.99 in
Dewpoint: 54.0 F
Visibility: 10.00 mi
Precip: --
Heat Index: 93 F
Wind Chill: NA
Current conditions at:

Midland, Midland International Airport, TX (KMAF)

Lat: 31.94778 Lon: 102.20861

Local Radar Image active severe weather and emergency alerts image image weather storm and storm spotter reports image weather observation monitoring service image
Local
Radar
Active
Alerts
Storm Reports Obs
Monitoring

Sign-up For Email & Text Message Weather Alert Notification Services



Advertise Here

Observation History for Midland, Midland International Airport, TX


Time Wind
(mph)
Vis
(mi)
Weather Precip (in) Temperature (F) Relative
Humidity
Wind
Chill
(F)
Heat
Index
(F)
Pressure
Air Dwpt altimeter
(in)
sea level
(mb)
Rmks
3:53 pm CDT S 15.0 G 21.9 10.00 Fair -- 95.0 54.0 25% NA 93 29.99 1010.3
2:53 pm CDT SE 19.6 G 27.6 10.00 Fair -- 92.0 55.0 29% NA 90 30.02 1011.2
1:53 pm CDT S 16.1 G 23.0 10.00 Fair -- 91.0 55.0 30% NA 89 30.03 1011.8
12:53 pm CDT S 18.4 G 25.3 10.00 Fair -- 90.0 59.0 35% NA 89 30.05 1012.4
11:53 am CDT S 23.0 9.00 Fair and Breezy -- 87.0 62.1 43% NA 87 30.07 1012.9
10:53 am CDT S 23.0 9.00 Fair and Breezy -- 83.0 64.0 53% NA 84 30.06 1012.7
9:53 am CDT S 18.4 G 25.3 9.00 Fair -- 80.0 64.0 58% NA 82 30.06 1012.7
8:53 am CDT S 16.1 9.00 Fair -- 77.0 62.1 60% NA NA 30.05 1012.4
7:53 am CDT SE 11.5 9.00 Fair -- 73.0 62.1 69% NA NA 30.05 1012.3
6:53 am CDT SE 5.8 9.00 Fair -- 71.0 61.0 71% NA NA 30.03 1011.8
5:53 am CDT S 5.8 10.00 Fair -- 72.0 60.1 66% NA NA 30.01 1011.0
4:53 am CDT SE 4.6 10.00 Fair -- 73.0 60.1 64% NA NA 30.01 1011.0
3:53 am CDT SE 6.9 10.00 Fair -- 74.0 60.1 62% NA NA 30.01 1011.0
2:53 am CDT S 6.9 10.00 Fair -- 76.0 60.1 58% NA NA 30.00 1010.6
1:53 am CDT SE 10.4 10.00 Fair -- 76.0 60.1 58% NA NA 30.00 1010.7
12:53 am CDT SE 10.4 10.00 Fair -- 78.0 60.1 54% NA NA 30.00 1010.4
11:53 pm CDT SE 12.7 10.00 Fair -- 80.0 61.0 52% NA 81 30.00 1010.6
10:53 pm CDT S 12.7 10.00 Fair -- 82.0 61.0 49% NA 83 29.98 1010.0
9:53 pm CDT S 17.3 10.00 Fair -- 85.0 57.9 40% NA 84 29.96 1009.3
8:53 pm CDT S 17.3 9.00 Fair -- 89.0 55.0 31% NA 87 29.93 1008.4
7:53 pm CDT SE 17.3 9.00 Fair -- 92.0 54.0 28% NA 90 29.90 1007.2
6:53 pm CDT SE 26.5 8.00 Fair and Windy -- 94.0 54.0 26% NA 92 29.90 1007.1
5:53 pm CDT SE 8.1 10.00 Mostly Cloudy -- 96.0 46.9 19% NA 92 29.90 1007.0
4:53 pm CDT SE 8.1 G 19.6 10.00 Fair -- 99.0 46.9 17% NA 95 29.91 1007.3

Regional Weather Observation


Andrews County Airport, TX (KE11)

Fair
94.0 F

Midland, Midland International Airport, TX (KMAF)

Fair
95.0 F

Odessa, Odessa-Schlemeyer Field, TX (KODO)

A Few Clouds
93.0 F

Seminole, Gaines County Airport, TX (KGNC)

Fair
94.0 F

Lamesa Municipal Airport, TX (KLUV)

Fair
95.0 F

Big Spring, Big Spring McMahon-Wrinkle Airport, TX (KBPG)

Partly Cloudy
95.0 F

Advertise Here


Advertise Here